Theta_e
317 318 320 321 321 321 321 323 323 324 325 336 338 339 338 338 338 337 336 336 335 333 331 331 328 333 335 335 334 334 334 333 331 326 328 328 329 329 329 328 328 327 328
316 316 318 319 319 320 321 324 325 325 328 334 338 338 338 338 338 338 338 338 337 333 332 331 332 335 335 334 334 334 333 331 329 327 323 327 325 326 327 327 327 327 328
316 316 315 316 319 319 321 322 323 325 330 337 339 339 339 338 338 338 339 338 337 336 335 335 335 336 335 334 334 334 331 329 327 327 325 325 327 323 324 327 328 328 328
314 315 316 315 317 318 320 320 322 325 330 337 339 338 337 335 337 338 339 339 338 338 338 337 336 335 335 335 333 331 329 328 326 325 326 323 322 326 327 325 326 327 327
312 313 314 314 316 319 324 320 320 324 333 337 339 339 338 337 338 339 339 339 338 339 338 337 334 335 334 332 329 328 328 328 327 326 324 325 324 324 326 327 324 325 326
311 312 312 330 333 337 339 337 334 336 338 339 339 339 338 335 335 337 338 336 335 336 335 335 335 333 330 327 327 328 327 327 327 327 325 324 323 324 326 326 322 324 325
311 312 330 334 338 337 337 339 340 339 340 340 339 338 338 336 336 335 335 334 333 335 335 334 331 329 326 327 327 328 328 328 327 326 326 325 324 323 324 323 322 323 325
311 330 336 337 338 338 338 339 339 338 339 337 336 336 336 335 334 335 335 335 334 333 332 331 329 326 327 327 328 329 328 327 327 327 326 326 325 325 324 323 323 327 327
326 335 336 338 336 336 336 337 337 336 336 336 335 335 336 335 334 334 334 333 332 331 330 329 328 327 326 327 329 329 329 328 328 327 327 326 325 325 325 324 324 326 328
335 336 337 333 333 334 335 335 336 336 335 336 336 336 335 335 334 333 332 331 329 328 328 328 327 327 327 329 329 329 329 328 327 327 327 327 325 324 324 325 324 325 324
337 336 334 331 331 332 332 332 333 332 333 334 333 333 332 332 332 331 331 330 328 326 327 326 326 327 328 328 328 328 328 328 327 327 327 327 327 326 326 326 326 324 325
337 335 333 331 330 330 330 330 331 331 331 331 331 330 330 330 331 331 330 328 326 326 326 327 327 327 327 327 327 328 328 328 327 328 327 328 328 327 327 327 327 326 325
335 336 333 332 330 330 330 330 330 330 331 330 330 330 329 329 328 328 327 326 326 327 327 326 326 329 328 328 328 328 329 328 328 328 328 328 328 327 327 326 326 325 325
336 337 334 331 330 331 330 330 330 330 330 330 329 329 328 328 329 327 327 327 327 326 326 328 328 328 329 329 329 329 329 329 328 328 328 328 328 327 327 325 325 324 324
339 337 334 331 329 330 330 330 330 331 331 329 329 329 329 328 328 327 327 326 326 325 328 329 329 328 329 328 329 328 328 328 328 329 329 328 328 327 326 324 324 324 323
338 336 334 332 331 330 330 330 330 330 331 330 330 330 330 329 328 327 326 326 326 326 329 329 328 326 329 329 329 328 329 327 328 328 328 329 326 325 324 324 324 324 322
337 336 334 333 331 330 331 331 331 331 331 330 330 330 330 329 327 327 326 326 326 328 329 328 327 323 328 329 329 328 328 327 327 326 326 325 324 324 323 323 323 323 322
336 335 333 331 331 331 331 331 331 332 332 331 331 331 329 328 327 325 326 326 326 328 329 328 324 324 329 330 329 328 327 327 327 327 326 324 324 323 323 323 323 323 322
333 333 332 331 331 331 332 331 329 331 332 331 331 331 328 327 327 327 326 326 327 328 328 326 324 324 329 330 328 327 327 327 326 326 325 324 323 322 323 323 322 321 321
331 331 332 331 330 330 331 329 328 330 331 331 331 329 328 327 326 326 326 327 327 328 327 325 325 325 330 330 328 327 326 325 325 325 324 324 322 322 323 322 321 321 320
330 331 331 329 329 330 329 327 327 329 331 331 330 329 328 326 326 326 327 327 327 327 327 326 325 326 329 330 328 328 326 324 324 323 322 322 322 323 322 322 322 321 321
330 331 329 328 328 329 328 326 327 329 330 330 329 329 328 327 327 327 327 327 327 327 326 326 324 326 328 330 329 328 327 324 323 323 323 322 322 323 323 323 323 322 322
330 330 329 326 326 327 328 325 327 329 330 329 329 330 328 327 327 328 328 328 327 327 326 325 325 326 328 330 329 327 326 326 324 323 322 322 323 323 323 323 323 323 322
330 329 326 325 322 325 327 328 327 328 329 329 329 329 328 328 328 328 328 328 328 326 326 325 324 325 327 327 328 327 326 326 325 323 323 323 323 323 323 322 322 322 322
326 326 326 326 324 324 326 327 326 328 328 328 328 329 329 328 328 328 329 328 328 328 328 327 325 326 326 328 328 327 326 326 325 324 323 323 323 322 322 322 322 322 321
327 326 324 324 323 323 324 324 325 326 327 327 328 329 329 328 329 329 328 329 329 328 328 328 327 326 327 329 328 326 326 326 326 323 322 323 322 321 321 321 322 322 322
Wind_Speed
15 21 30 35 40 38 38 36 31 28 23 28 29 28 30 30 31 30 30 24 27 29 32 33 27 25 23 20 16 15 16 15 14 9 10 13 15 17 18 17 16 16 14
8 11 23 28 34 37 37 30 30 27 25 29 27 16 23 21 25 25 22 24 25 28 31 28 30 27 22 18 16 17 13 9 9 4 2 2 2 10 16 14 15 16 15
15 15 11 19 32 31 37 29 29 23 23 27 25 17 19 11 19 22 23 24 24 28 26 27 27 24 20 17 17 15 13 9 6 11 4 1 2 1 1 10 10 13 15
15 14 12 11 25 33 31 26 25 22 24 27 28 27 16 12 13 26 24 24 25 24 24 26 23 20 16 16 14 12 11 10 9 8 13 4 2 1 1 0 3 4 9
10 13 13 14 26 27 26 23 22 20 23 27 27 26 18 16 19 23 23 20 20 20 22 25 19 17 15 12 11 9 10 11 10 10 5 12 4 1 1 1 2 5 10
9 10 9 10 12 8 4 5 13 16 20 23 23 25 24 24 25 26 27 23 20 19 19 18 16 13 11 10 9 10 10 10 10 10 11 8 4 5 3 2 1 0 4
9 8 5 1 3 3 6 12 19 21 22 23 26 25 26 30 32 32 25 21 18 18 18 17 14 11 10 11 9 9 10 11 10 9 12 15 12 6 8 5 2 2 2
7 3 3 3 5 8 12 18 23 23 21 23 24 25 27 29 30 29 26 26 25 20 16 14 12 12 11 9 9 10 9 10 10 10 13 14 16 12 8 7 7 2 2
4 4 6 5 6 12 16 20 24 23 23 23 24 25 25 25 28 29 29 26 20 17 15 13 13 11 10 9 9 9 8 8 10 11 12 13 12 14 14 9 10 6 3
7 8 6 6 9 16 20 22 25 25 24 25 25 24 23 24 24 25 24 20 17 14 15 13 11 9 8 8 8 8 9 9 10 11 13 12 10 10 13 14 12 8 5
10 10 7 7 13 17 20 23 25 26 25 25 26 25 24 23 23 21 18 16 14 15 12 11 7 6 6 8 8 10 10 10 10 10 10 9 9 10 10 11 14 12 8
13 12 8 9 11 14 18 22 26 28 28 28 27 24 21 19 18 16 16 15 15 13 11 7 3 4 8 9 10 10 10 10 12 11 11 8 9 9 10 10 12 16 11
12 12 9 9 8 12 16 21 25 28 27 26 24 21 19 16 16 16 16 15 13 10 8 4 2 2 2 4 7 7 6 8 9 10 11 9 11 10 9 10 10 15 15
10 12 9 9 7 13 16 20 24 27 26 23 22 20 18 16 16 15 14 13 10 9 5 4 6 2 3 6 1 4 5 4 5 6 10 11 13 12 12 12 17 21 23
8 7 11 9 7 11 16 20 24 24 22 20 19 17 15 15 17 15 12 12 10 7 7 9 5 3 3 4 4 4 2 3 2 3 8 12 13 11 12 18 22 24 25
7 6 9 11 10 12 15 21 22 21 19 17 14 13 13 13 15 15 12 12 10 6 11 8 5 4 5 3 1 3 2 3 7 10 10 12 12 11 14 16 20 20 27
8 10 9 10 10 15 20 21 21 18 14 13 13 13 14 16 15 14 12 11 8 10 10 6 4 4 5 4 4 5 5 9 12 13 16 16 15 16 18 19 19 20 26
8 8 7 6 13 20 23 21 19 17 14 15 14 15 16 17 14 14 12 10 9 11 10 6 4 4 6 6 8 8 10 13 15 15 17 19 18 20 23 23 25 21 23
8 10 13 14 17 22 23 20 17 17 13 15 16 17 18 14 12 12 12 11 11 10 10 7 4 3 5 8 9 11 13 15 14 14 15 15 18 24 27 29 29 31 25
9 11 18 17 22 22 22 20 17 17 15 17 18 18 16 14 14 13 13 11 10 11 10 7 4 4 5 9 9 11 15 16 16 13 13 16 25 26 29 33 32 30 31
11 19 21 18 22 23 22 18 18 19 19 19 18 17 15 14 11 12 11 10 12 12 10 7 5 5 5 8 9 12 14 16 17 16 20 25 26 25 29 30 34 32 33
11 19 16 16 21 24 24 18 19 21 18 21 18 16 14 13 11 12 10 11 12 14 11 9 7 6 4 8 9 9 11 16 19 20 23 23 22 23 25 29 33 32 31
10 19 18 17 21 25 26 21 22 19 19 20 17 17 14 13 12 12 11 11 12 13 12 9 6 6 6 8 9 10 12 14 19 22 22 22 19 19 21 29 29 29 29
4 16 17 13 14 26 27 27 22 20 21 21 16 15 15 14 12 9 10 10 10 10 12 10 8 8 6 10 12 13 13 14 20 22 22 21 19 21 23 22 22 23 27
6 8 10 14 17 27 26 24 22 22 22 22 18 16 14 14 13 10 9 7 5 7 13 13 11 11 10 11 13 15 17 20 23 25 22 20 19 23 23 21 18 22 23
13 7 7 10 15 25 26 22 23 23 23 21 20 19 19 16 14 11 9 7 5 4 4 6 8 9 6 12 13 14 18 20 24 23 19 18 18 19 20 17 18 20 21
Wind_Direction
280 278 281 282 287 286 289 286 284 274 241 217 199 205 209 211 217 220 221 223 226 222 217 217 213 209 220 221 222 228 233 248 265 275 287 275 260 254 249 245 242 239 232
262 266 267 272 280 281 287 283 280 266 236 218 204 197 200 209 210 214 218 223 219 212 210 205 206 203 212 217 221 222 230 246 253 220 243 307 302 248 241 235 233 225 224
254 260 266 266 277 278 284 288 281 257 228 214 191 176 171 169 189 205 208 213 210 206 199 198 199 202 209 217 217 223 232 236 233 216 200 175 245 312 330 214 218 221 216
242 251 255 268 270 278 289 286 268 239 218 207 191 182 172 153 181 194 200 201 203 195 195 196 195 203 213 216 222 233 238 224 216 211 225 226 208 180 19 182 206 233 229
232 251 250 258 276 287 290 277 256 228 206 193 193 185 173 178 174 181 185 180 179 193 191 189 196 205 206 216 231 223 217 221 220 209 185 217 202 157 102 76 5 249 253
256 252 260 283 294 303 276 195 174 166 175 177 179 177 171 158 153 162 161 159 162 173 180 184 194 193 211 222 210 216 221 225 229 228 222 202 177 200 175 119 98 100 211
255 261 255 230 261 198 151 132 137 138 156 163 170 169 167 160 154 156 157 168 171 174 176 179 184 199 199 200 213 218 225 229 230 239 239 229 221 200 191 141 127 145 133
255 234 139 143 153 140 124 131 131 134 145 158 159 158 156 155 151 157 173 175 178 173 173 182 186 186 195 206 218 226 231 238 245 245 245 239 226 212 195 191 161 137 135
197 157 149 134 128 114 118 127 126 132 141 143 144 145 148 153 155 162 165 163 165 169 176 177 179 190 197 213 223 230 244 252 252 249 246 235 224 217 215 214 202 154 157
150 152 133 123 111 118 126 129 131 132 134 134 135 142 150 154 154 154 155 157 156 161 162 166 171 189 201 213 230 248 250 255 259 247 240 230 214 213 216 223 218 199 148
160 147 128 110 115 118 123 123 126 127 129 133 134 134 136 139 145 149 152 152 155 155 157 162 171 191 221 236 249 262 253 247 247 234 231 232 215 215 223 222 211 214 175
150 139 127 116 108 110 118 123 126 127 130 130 130 130 135 144 149 149 150 151 148 152 154 157 171 255 264 258 262 261 257 242 231 234 230 232 206 208 216 214 209 200 172
138 127 119 115 120 122 126 128 130 132 135 134 133 135 138 142 146 149 150 149 151 153 156 165 239 179 324 292 274 257 270 231 233 232 220 210 195 190 187 196 177 170 163
154 131 121 121 124 132 134 136 137 139 140 140 142 145 149 151 152 150 152 154 152 153 166 157 136 99 351 344 340 245 227 199 206 206 208 209 199 193 177 175 160 146 133
146 144 135 131 125 135 141 145 146 148 152 150 155 153 153 153 152 153 156 162 159 159 162 136 111 71 42 49 66 70 137 179 174 208 192 190 193 196 178 163 159 144 136
155 142 149 142 149 152 153 156 156 160 163 163 161 158 157 160 160 158 156 156 160 167 152 128 104 78 57 58 45 108 106 129 126 122 137 141 134 146 157 158 161 151 148
162 152 167 167 156 160 164 166 166 164 166 164 170 170 166 162 165 163 164 167 169 166 150 140 109 70 40 29 79 101 109 127 128 134 135 132 133 138 139 145 143 140 158
161 151 150 167 161 171 173 171 167 170 173 178 175 176 169 168 174 158 165 181 182 171 160 153 114 66 40 57 116 110 116 128 132 134 140 140 142 144 142 137 130 129 146
171 160 159 167 169 177 178 175 170 176 174 184 179 178 175 171 164 163 170 171 172 167 162 158 121 71 58 91 115 117 124 125 129 142 145 143 147 142 141 134 120 118 126
162 155 161 171 172 182 181 176 174 178 181 188 185 182 178 174 167 168 176 174 180 169 168 153 127 95 86 105 121 125 130 127 129 132 140 148 143 141 136 126 121 117 118
160 154 159 169 180 179 182 177 179 188 197 188 188 184 184 185 183 181 184 174 175 173 170 153 128 112 97 122 124 134 138 140 131 129 133 139 143 141 139 139 134 128 132
159 158 155 163 179 179 181 178 186 198 190 190 189 182 185 184 173 173 175 172 170 168 164 154 132 122 120 130 129 130 143 147 135 134 139 141 144 149 143 147 139 136 139
166 162 161 155 179 184 189 184 202 191 186 193 186 190 183 177 173 171 173 168 176 174 169 162 151 137 124 135 130 129 136 145 142 139 141 142 147 151 153 147 148 150 153
182 158 146 155 164 184 194 203 198 191 189 194 183 191 184 170 167 172 171 168 170 174 170 169 169 153 142 140 140 137 145 150 141 140 141 145 145 151 143 147 154 160 161
107 131 161 169 176 181 193 199 195 190 192 197 188 195 188 180 171 169 174 174 173 188 178 182 182 173 164 164 156 151 150 156 152 146 145 144 140 145 151 155 161 168 169
32 71 121 169 175 174 188 190 190 193 195 193 190 194 189 184 183 176 164 170 139 152 176 185 188 188 182 163 158 156 154 155 156 150 147 151 151 155 163 166 168 176 179